Latest Coastal Weather Observations for Browse Island

IDW60701

Issued at 4:22 pm WST Monday 8 February 2016 (issued every 10 minutes, with the page automatically refreshed every 10 minutes)

About coastal observations | Map of coastal stations | Coastal observations for WA | Marine services | Other Formats
Station Details ID: 200784 Name: BROWSE ISLAND Lat: -14.11 Lon: 123.55 Height: 3.7 m
Data from the previous 72 hours. | See also: Recent months at Browse Island
Date/Time
WST
Temp

°C
Wind Pressure Rain
since 9am
mm
Weather Cloud Vis
km
Sea
Height
m
Swell
Dir
 
Speed
knots
Gust
knots
hPa Trend Height
m
Period
s
Dir
08/04:00pm 29.9 SSW 7 - 1006.6 - - - - - - - - -
08/03:30pm 30.0 SSW 7 - 1006.0 - - - - - - - - -
08/03:00pm 29.9 SSW 7 - 1006.6 - - - - - - - - -
08/02:30pm 30.0 SSW 7 - 1006.0 - - - - - - - - -
08/02:00pm 29.7 SSW 7 - 1007.0 - - - - - - - - -
08/01:30pm 30.0 S 7 - 1007.0 - - - - - - - - -
08/01:00pm 29.6 S 7 - 1007.4 - - - - - - - - -
08/12:30pm 30.0 S 8 - 1007.0 - - - - - - - - -
08/12:00pm 29.6 S 8 - 1008.2 - - - - - - - - -
08/11:30am 30.0 S 9 - 1008.0 - - - - - - - - -
08/11:00am 29.4 S 9 - 1009.0 - - - - - - - - -
08/10:30am 29.0 S 10 - 1009.0 - - - - - - - - -
08/10:00am 29.4 S 9 - 1009.3 - - - - - - - - -
08/09:30am 29.0 S 9 - 1009.0 - - - - - - - - -
08/09:00am 29.2 S 9 - 1009.6 - - - - - - - - -
08/08:30am 29.0 S 9 - 1009.0 - - - - - - - - -
08/08:00am 29.0 S 9 - 1009.4 - - - - - - - - -
08/07:30am 29.0 S 9 - 1009.0 - - - - - - - - -
08/07:00am 28.9 S 10 - 1009.0 - - - - - - - - -
08/06:30am 29.0 S 8 - 1009.0 - - - - - - - - -
08/06:00am 28.8 S 9 - 1008.7 - - - - - - - - -
08/05:30am 29.0 S 9 - 1008.0 - - - - - - - - -
08/05:00am 28.7 S 9 - 1008.3 - - - - - - - - -
08/04:30am 29.0 SSW 10 - 1008.0 - - - - - - - - -
08/04:00am 28.8 S 10 - 1008.1 - - - - - - - - -
08/03:30am 29.0 SSW 9 - 1008.0 - - - - - - - - -
08/03:00am 28.7 SSW 9 - 1008.2 - - - - - - - - -
08/02:30am 29.0 SSW 11 - 1008.0 - - - - - - - - -
08/02:00am 28.7 SW 11 - 1007.8 - - - - - - - - -
08/01:30am 29.0 SW 9 - 1008.0 - - - - - - - - -
08/01:00am 28.7 SW 9 - 1008.6 - - - - - - - - -
08/12:30am 29.0 SW 7 - 1009.0 - - - - - - - - -
08/12:00am 28.9 SW 7 - 1009.1 - - - - - - - - -
 
Date/Time
WST
Temp

°C
Wind Pressure Rain
since 9am
mm
Weather Cloud Vis
km
Sea
Height
m
Swell
Dir
 
Speed
knots
Gust
knots
hPa Trend Height
m
Period
s
Dir
07/11:30pm 29.0 SW 8 - 1009.0 - - - - - - - - -
07/11:00pm 28.9 SW 10 - 1009.6 - - - - - - - - -
07/10:30pm 29.0 SW 10 - 1009.0 - - - - - - - - -
07/10:00pm 29.2 SW 10 - 1009.8 - - - - - - - - -
07/09:30pm 29.0 SW 11 - 1009.0 - - - - - - - - -
07/09:00pm 29.1 WSW 11 - 1009.3 - - - - - - - - -
07/08:30pm 29.0 WSW 9 - 1009.0 - - - - - - - - -
07/08:00pm 29.3 WSW 8 - 1008.9 - - - - - - - - -
07/07:30pm 29.0 SSW 8 - 1008.0 - - - - - - - - -
07/07:00pm 29.3 S 9 - 1008.6 - - - - - - - - -
07/06:30pm 29.0 SW 9 - 1007.0 - - - - - - - - -
07/06:00pm 29.3 SW 9 - 1007.4 - - - - - - - - -
07/05:30pm 29.0 SW 10 - 1007.0 - - - - - - - - -
07/05:00pm 29.6 SW 10 - 1006.5 - - - - - - - - -
07/04:30pm 30.0 SW 9 - 1006.0 - - - - - - - - -
07/04:00pm 29.5 SW 11 - 1006.2 - - - - - - - - -
07/03:30pm 30.0 SW 11 - 1006.0 - - - - - - - - -
07/03:00pm 29.4 SW 12 - 1006.2 - - - - - - - - -
07/02:30pm 29.0 SW 12 - 1006.0 - - - - - - - - -
07/02:00pm 29.5 SW 11 - 1007.0 - - - - - - - - -
07/01:30pm 29.0 SW 10 - 1007.0 - - - - - - - - -
07/01:00pm 29.4 SW 9 - 1007.7 - - - - - - - - -
07/12:30pm 29.0 SW 9 - 1008.0 - - - - - - - - -
07/12:00pm 29.6 SW 8 - 1008.2 - - - - - - - - -
07/11:30am 29.0 SW 9 - 1008.0 - - - - - - - - -
07/11:00am 29.4 SW 9 - 1008.7 - - - - - - - - -
07/10:30am 29.0 SW 9 - 1008.0 - - - - - - - - -
07/10:00am 29.2 SW 10 - 1008.7 - - - - - - - - -
07/09:30am 29.0 SSW 10 - 1008.0 - - - - - - - - -
07/09:00am 28.9 SW 10 - 1008.6 - - - - - - - - -
07/08:30am 29.0 SW 10 - 1008.0 - - - - - - - - -
07/08:00am 28.9 SW 10 - 1008.5 - - - - - - - - -
07/07:30am 29.0 SW 9 - 1008.0 - - - - - - - - -
07/07:00am 28.6 SW 9 - 1007.9 - - - - - - - - -
07/06:30am 29.0 SW 8 - 1007.0 - - - - - - - - -
07/06:00am 28.4 SW 9 - 1007.4 - - - - - - - - -
07/05:30am 29.0 WSW 9 - 1007.0 - - - - - - - - -
07/05:00am 28.4 WSW 10 - 1006.9 - - - - - - - - -
07/04:30am 29.0 WSW 10 - 1006.0 - - - - - - - - -
07/04:00am 28.5 SW 10 - 1006.6 - - - - - - - - -
07/03:30am 29.0 SW 11 - 1006.0 - - - - - - - - -
07/03:00am 28.4 SW 11 - 1006.2 - - - - - - - - -
07/02:30am 28.0 SW 11 - 1006.0 - - - - - - - - -
07/02:00am 28.5 WSW 11 - 1006.2 - - - - - - - - -
07/01:30am 28.0 WSW 7 - 1006.0 - - - - - - - - -
07/01:00am 28.5 SW 9 - 1006.5 - - - - - - - - -
07/12:30am 29.0 SSW 11 - 1007.0 - - - - - - - - -
07/12:00am 28.5 SW 10 - 1007.6 - - - - - - - - -
 
Date/Time
WST
Temp

°C
Wind Pressure Rain
since 9am
mm
Weather Cloud Vis
km
Sea
Height
m
Swell
Dir
 
Speed
knots
Gust
knots
hPa Trend Height
m
Period
s
Dir
06/11:30pm 29.0 SW 10 - 1007.0 - - - - - - - - -
06/11:00pm 28.7 SW 11 - 1008.1 - - - - - - - - -
06/10:30pm 29.0 SW 11 - 1008.0 - - - - - - - - -
06/10:00pm 28.7 SW 10 - 1008.3 - - - - - - - - -
06/09:30pm 29.0 SSW 11 - 1008.0 - - - - - - - - -
06/09:00pm 28.8 SW 10 - 1008.0 - - - - - - - - -
06/08:30pm 29.0 SW 10 - 1008.0 - - - - - - - - -
06/08:00pm 28.7 SW 9 - 1007.6 - - - - - - - - -
06/07:30pm 29.0 SW 10 - 1007.0 - - - - - - - - -
06/07:00pm 28.5 SW 10 - 1006.6 - - - - - - - - -
06/06:30pm 29.0 SW 13 - 1006.0 - - - - - - - - -
06/06:00pm 28.5 WSW 14 - 1005.8 - - - - - - - - -
06/05:30pm 29.0 SW 15 - 1005.0 - - - - - - - - -
06/05:00pm 29.0 SSW 17 - 1005.4 - - - - - - - - -
06/04:30pm 29.0 SSW 15 - 1005.0 - - - - - - - - -
06/04:00pm 28.8 SSW 15 - 1005.2 - - - - - - - - -
06/03:30pm 29.0 SSW 16 - 1005.0 - - - - - - - - -
06/03:00pm 29.0 SSW 11 - 1005.4 - - - - - - - - -
06/02:30pm 29.0 SSW 12 - 1005.0 - - - - - - - - -
06/02:00pm 28.8 SSW 11 - 1006.0 - - - - - - - - -
06/01:30pm 29.0 SSW 13 - 1006.0 - - - - - - - - -
06/01:00pm 28.5 SSW 12 - 1006.8 - - - - - - - - -
06/12:30pm 28.0 SSW 12 - 1007.0 - - - - - - - - -
06/12:00pm 28.3 S 14 - 1007.4 - - - - - - - - -
06/11:30am 28.0 SSW 16 - 1008.0 - - - - - - - - -
06/11:00am 28.7 SSW 15 - 1008.1 - - - - - - - - -
06/10:30am 29.0 WSW 16 - 1008.0 - - - - - - - - -
06/10:00am 28.8 WSW 17 - 1008.3 - - - - - - - - -
06/09:30am 29.0 WSW 17 - 1008.0 - - - - - - - - -
06/09:00am 28.7 WSW 17 - 1008.9 - - - - - - - - -
06/08:30am 29.0 WSW 15 - 1008.0 - - - - - - - - -
06/08:00am 28.6 WSW 15 - 1009.0 - - - - - - - - -
06/07:30am 29.0 SW 14 - 1009.0 - - - - - - - - -
06/07:00am 28.5 SW 14 - 1008.6 - - - - - - - - -
06/06:30am 28.0 SW 14 - 1008.0 - - - - - - - - -
06/06:00am 28.4 SSW 13 - 1008.0 - - - - - - - - -
06/05:30am 28.0 SW 13 - 1007.0 - - - - - - - - -
06/05:00am 28.4 SW 13 - 1007.1 - - - - - - - - -
06/04:30am 29.0 SW 14 - 1007.0 - - - - - - - - -
06/04:00am 28.5 WSW 14 - 1006.9 - - - - - - - - -
06/03:30am 29.0 WSW 14 - 1007.0 - - - - - - - - -
06/03:00am 28.6 WSW 13 - 1007.0 - - - - - - - - -
06/02:30am 29.0 W 14 - 1007.0 - - - - - - - - -
06/02:00am 28.6 W 13 - 1006.9 - - - - - - - - -
06/01:30am 29.0 W 14 - 1007.0 - - - - - - - - -
06/01:00am 28.7 W 14 - 1007.3 - - - - - - - - -
06/12:30am 29.0 W 14 - 1007.0 - - - - - - - - -
06/12:00am 28.7 W 12 - 1008.1 - - - - - - - - -
 
Date/Time
WST
Temp

°C
Wind Pressure Rain
since 9am
mm
Weather Cloud Vis
km
Sea
Height
m
Swell
Dir
 
Speed
knots
Gust
knots
hPa Trend Height
m
Period
s
Dir
05/11:30pm 29.0 W 13 - 1008.0 - - - - - - - - -
05/11:00pm 28.8 W 11 - 1008.3 - - - - - - - - -
05/10:30pm 29.0 W 12 - 1008.0 - - - - - - - - -
05/10:00pm 28.7 W 11 - 1008.6 - - - - - - - - -
05/09:30pm 29.0 W 11 - 1008.0 - - - - - - - - -
05/09:00pm 28.8 W 10 - 1008.4 - - - - - - - - -
05/08:30pm 29.0 W 11 - 1008.0 - - - - - - - - -
05/08:00pm 28.9 W 10 - 1007.8 - - - - - - - - -
05/07:30pm 29.0 W 11 - 1007.0 - - - - - - - - -
05/07:00pm 28.7 W 9 - 1007.2 - - - - - - - - -
05/06:30pm 29.0 W 8 - 1007.0 - - - - - - - - -
05/06:00pm 28.6 WSW 8 - 1006.9 - - - - - - - - -
05/05:30pm 29.0 WSW 8 - 1006.0 - - - - - - - - -
05/05:00pm 29.0 WSW 7 - 1006.5 - - - - - - - - -
05/04:30pm 29.0 WSW 8 - 1006.0 - - - - - - - - -

Other Formats:

Comma delimited format used in spreadsheet applications
http://www.bom.gov.au/fwo/IDW60701/IDW60701.94103.axf

JavaScript Object Notation format (JSON) in row-major order
http://www.bom.gov.au/fwo/IDW60701/IDW60701.94103.json